Location: Ferques
(50.8300°N, 1.7599°E)
Time: 15:56:16
(UTC+00:00)

Cosmos 1076 Rocket - Pass Details

Date: 19 May 2025
Orbit: 583 x 603 km, 82.5° (Epoch: 13 June)

Event Time Altitude Azimuth Distance (km) Brightness Sun altitude
Rises 20:27:49 0° 348° (NNW) 2,868 8.0 -6.5°
Reaches altitude 10° 20:30:03 10° 347° (NNW) 1,962 7.1 -6.8°
Maximum altitude 20:34:23 75° 263° (W) 631 3.7 -7.3°
Drops below altitude 10° 20:38:41 10° 178° (S) 1,947 5.7 -7.7°
Enters shadow 20:40:13 - 177° (S) 2,574 6.3 -7.9°
